sat.trackr.live / text

‹ back to catalog

HULIANWANG DIGUI-14

NORAD 62974 · 2025-030D

PAYLOAD ACTIVE UNKNOWN

§ Identity

Operator
Country
PRC
Launch date
2025-02-11
Launch site
WSC
Launch vehicle
Mass (kg)
RCS (m²)

External: N2YO · Heavens-Above · Gunter

§ Orbital elements

Epoch: 2026-05-25T04:43:42.248928Z

Period
108.33 min
Inclination
50.0043°
Eccentricity
0.0001115
Mean motion
13.29324037 rev/d
Perigee alt
1,148.5 km
Apogee alt
1,150.2 km
Semi-major
7,527.5 km
B*
6.9800e-5
RAAN
318.0794°
Arg perigee
95.5870°
Mean anomaly
264.5130°
Rev number
6,280

§ Raw data

HULIANWANG DIGUI-141 62974U 25030D   26145.19701677 -.00000092  00000+0  69800-4 0  99922 62974  50.0043 318.0794 0001115  95.5870 264.5130 13.29324037 62807

JSON: /api/v1/satellites/62974 · /tle

For live sub-satellite position, see the globe view (requires WebGL).

§ Visibility from observer

Set your observer location to see the next 7 days of passes ≥ 10°. The values pass through the URL so the page stays shareable.

No JS? Fill the form by hand. The geolocation button needs JavaScript.